Time,TemperatureF,DewpointF,PressureIn,WindDirection,WindDirectionDegrees,WindSpeedMPH,WindSpeedGustMPH,Humidity,HourlyPrecipIn,Conditions,Clouds,dailyrainin,SoftwareType,DateUTC
2013-06-15 00:04:00,62.6,17.1,29.78,ESE,123,1.0,1.0,17,0.00,,,0.00,Wunderground v.1.15,2013-06-15 06:04:00,
2013-06-15 00:06:00,62.6,17.1,29.78,ESE,121,1.0,1.0,17,0.00,,,0.00,Wunderground v.1.15,2013-06-15 06:06:00,
2013-06-15 00:08:00,62.6,17.1,29.78,ESE,119,1.0,1.0,17,0.00,,,0.00,Wunderground v.1.15,2013-06-15 06:08:00,
2013-06-15 00:10:00,62.4,17.0,29.78,SE,136,1.0,1.0,17,0.00,,,0.00,Wunderground v.1.15,2013-06-15 06:10:00,
2013-06-15 00:14:00,62.3,18.2,29.78,SE,135,1.0,2.0,18,0.00,,,0.00,Wunderground v.1.15,2013-06-15 06:14:00,
2013-06-15 00:16:00,62.1,18.0,29.76,SE,136,0.0,2.0,18,0.00,,,0.00,Wunderground v.1.15,2013-06-15 06:16:00,
2013-06-15 00:18:00,62.0,19.2,29.76,SE,145,0.0,2.0,19,0.00,,,0.00,Wunderground v.1.15,2013-06-15 06:18:00,
2013-06-15 00:20:00,62.0,19.2,29.76,SE,145,1.0,2.0,19,0.00,,,0.00,Wunderground v.1.15,2013-06-15 06:20:00,
2013-06-15 00:24:00,61.5,20.0,29.76,SE,142,0.0,0.0,20,0.00,,,0.00,Wunderground v.1.15,2013-06-15 06:24:00,
2013-06-15 00:26:00,61.3,19.8,29.76,SE,137,0.0,0.0,20,0.00,,,0.00,Wunderground v.1.15,2013-06-15 06:26:00,
2013-06-15 00:28:00,61.2,19.8,29.76,SE,131,0.0,0.0,20,0.00,,,0.00,Wunderground v.1.15,2013-06-15 06:28:00,
2013-06-15 00:31:00,61.0,19.6,29.77,SE,140,0.0,0.0,20,0.00,,,0.00,Wunderground v.1.15,2013-06-15 06:31:00,
2013-06-15 00:34:00,60.9,20.7,29.77,SE,146,0.0,0.0,21,0.00,,,0.00,Wunderground v.1.15,2013-06-15 06:34:00,
2013-06-15 00:36:00,60.7,19.3,29.77,SE,144,0.0,0.0,20,0.00,,,0.00,Wunderground v.1.15,2013-06-15 06:36:00,
2013-06-15 00:42:00,60.7,20.5,29.77,ESE,121,1.0,3.0,21,0.00,,,0.00,Wunderground v.1.15,2013-06-15 06:42:00,
2013-06-15 00:44:00,60.5,21.4,29.77,SE,130,1.0,3.0,22,0.00,,,0.00,Wunderground v.1.15,2013-06-15 06:44:00,
2013-06-15 00:46:00,60.5,20.3,29.76,ESE,117,1.0,3.0,21,0.00,,,0.00,Wunderground v.1.15,2013-06-15 06:46:00,
2013-06-15 00:52:00,60.5,20.3,29.76,ESE,107,1.0,5.0,21,0.00,,,0.00,Wunderground v.1.15,2013-06-15 06:52:00,
2013-06-15 00:54:00,60.5,20.3,29.76,SE,134,1.0,5.0,21,0.00,,,0.00,Wunderground v.1.15,2013-06-15 06:54:00,
2013-06-15 00:56:00,60.7,20.5,29.76,ESE,104,2.0,5.0,21,0.00,,,0.00,Wunderground v.1.15,2013-06-15 06:56:00,
2013-06-15 00:58:00,60.7,20.5,29.76,ESE,121,2.0,5.0,21,0.00,,,0.00,Wunderground v.1.15,2013-06-15 06:58:00,
2013-06-15 01:01:00,60.5,20.3,29.76,ESE,107,2.0,2.0,21,0.00,,,0.00,Wunderground v.1.15,2013-06-15 07:01:00,
2013-06-15 01:02:00,60.5,21.4,29.76,ESE,115,2.0,4.0,22,0.00,,,0.00,Wunderground v.1.15,2013-06-15 07:02:00,
2013-06-15 01:06:00,60.7,20.5,29.76,ESE,117,2.0,4.0,21,0.00,,,0.00,Wunderground v.1.15,2013-06-15 07:06:00,
2013-06-15 01:08:00,60.7,20.5,29.76,SE,129,2.0,4.0,21,0.00,,,0.00,Wunderground v.1.15,2013-06-15 07:08:00,
2013-06-15 01:10:00,60.7,20.5,29.76,ESE,115,2.0,3.0,21,0.00,,,0.00,Wunderground v.1.15,2013-06-15 07:10:00,
2013-06-15 01:12:00,60.5,20.3,29.76,ESE,115,1.0,3.0,21,0.00,,,0.00,Wunderground v.1.15,2013-06-15 07:12:00,
2013-06-15 01:16:00,60.5,20.3,29.75,ESE,106,1.0,3.0,21,0.00,,,0.00,Wunderground v.1.15,2013-06-15 07:16:00,
2013-06-15 01:18:00,60.7,19.3,29.75,SE,126,1.0,3.0,20,0.00,,,0.00,Wunderground v.1.15,2013-06-15 07:18:00,
2013-06-15 01:22:00,60.9,19.5,29.75,SE,127,1.0,1.0,20,0.00,,,0.00,Wunderground v.1.15,2013-06-15 07:22:00,
2013-06-15 01:24:00,60.9,18.3,29.75,SE,131,1.0,1.0,19,0.00,,,0.00,Wunderground v.1.15,2013-06-15 07:24:00,
2013-06-15 01:26:00,60.9,18.3,29.75,SE,131,1.0,1.0,19,0.00,,,0.00,Wunderground v.1.15,2013-06-15 07:26:00,
2013-06-15 01:31:00,60.7,16.9,29.75,ESE,117,0.0,2.0,18,0.00,,,0.00,Wunderground v.1.15,2013-06-15 07:31:00,
2013-06-15 01:32:00,60.7,16.9,29.75,ESE,117,0.0,2.0,18,0.00,,,0.00,Wunderground v.1.15,2013-06-15 07:32:00,
2013-06-15 01:36:00,60.5,18.0,29.75,ESE,117,1.0,2.0,19,0.00,,,0.00,Wunderground v.1.15,2013-06-15 07:36:00,
2013-06-15 01:42:00,60.1,16.4,29.75,ESE,117,0.0,0.0,18,0.00,,,0.00,Wunderground v.1.15,2013-06-15 07:42:00,
2013-06-15 01:44:00,59.8,17.4,29.75,ESE,117,0.0,0.0,19,0.00,,,0.00,Wunderground v.1.15,2013-06-15 07:44:00,
2013-06-15 01:46:00,59.6,17.2,29.74,ESE,118,0.0,0.0,19,0.00,,,0.00,Wunderground v.1.15,2013-06-15 07:46:00,
2013-06-15 01:48:00,59.6,17.2,29.74,ESE,120,0.0,0.0,19,0.00,,,0.00,Wunderground v.1.15,2013-06-15 07:48:00,
2013-06-15 01:50:00,59.5,17.1,29.74,ESE,119,0.0,0.0,19,0.00,,,0.00,Wunderground v.1.15,2013-06-15 07:50:00,
2013-06-15 01:52:00,59.5,17.1,29.74,ESE,119,0.0,0.0,19,0.00,,,0.00,Wunderground v.1.15,2013-06-15 07:52:00,
2013-06-15 01:54:00,59.5,15.9,29.74,ESE,120,0.0,0.0,18,0.00,,,0.00,Wunderground v.1.15,2013-06-15 07:54:00,
2013-06-15 02:01:00,59.2,14.3,29.75,SE,140,0.0,2.0,17,0.00,,,0.00,Wunderground v.1.15,2013-06-15 08:01:00,
2013-06-15 02:02:00,59.5,14.6,29.75,SE,125,0.0,2.0,17,0.00,,,0.00,Wunderground v.1.15,2013-06-15 08:02:00,
2013-06-15 02:04:00,59.9,14.9,29.75,ESE,123,0.0,2.0,17,0.00,,,0.00,Wunderground v.1.15,2013-06-15 08:04:00,
2013-06-15 02:06:00,60.4,13.9,29.75,SSE,150,1.0,2.0,16,0.00,,,0.00,Wunderground v.1.15,2013-06-15 08:06:00,
2013-06-15 02:08:00,60.7,15.6,29.75,SSE,157,1.0,2.0,17,0.00,,,0.00,Wunderground v.1.15,2013-06-15 08:08:00,
2013-06-15 02:10:00,60.9,14.3,29.75,ESE,116,1.0,1.0,16,0.00,,,0.00,Wunderground v.1.15,2013-06-15 08:10:00,
2013-06-15 02:12:00,61.2,14.6,29.75,ESE,123,1.0,1.0,16,0.00,,,0.00,Wunderground v.1.15,2013-06-15 08:12:00,
2013-06-15 02:16:00,61.3,16.1,29.74,ESE,115,1.0,1.0,17,0.00,,,0.00,Wunderground v.1.15,2013-06-15 08:16:00,
2013-06-15 02:18:00,61.2,16.0,29.74,ESE,123,1.0,1.0,17,0.00,,,0.00,Wunderground v.1.15,2013-06-15 08:18:00,
2013-06-15 02:22:00,60.7,16.9,29.74,ESE,123,1.0,1.0,18,0.00,,,0.00,Wunderground v.1.15,2013-06-15 08:22:00,
2013-06-15 02:24:00,60.4,16.6,29.74,ESE,123,0.0,1.0,18,0.00,,,0.00,Wunderground v.1.15,2013-06-15 08:24:00,
2013-06-15 02:31:00,59.9,16.2,29.75,SE,136,1.0,4.0,18,0.00,,,0.00,Wunderground v.1.15,2013-06-15 08:31:00,
2013-06-15 02:32:00,59.8,17.4,29.75,SE,124,1.0,4.0,19,0.00,,,0.00,Wunderground v.1.15,2013-06-15 08:32:00,
2013-06-15 02:34:00,59.8,17.4,29.75,ESE,109,1.0,4.0,19,0.00,,,0.00,Wunderground v.1.15,2013-06-15 08:34:00,
2013-06-15 02:38:00,59.6,17.2,29.75,ESE,108,1.0,4.0,19,0.00,,,0.00,Wunderground v.1.15,2013-06-15 08:38:00,
2013-06-15 02:42:00,59.3,15.7,29.75,ESE,109,0.0,1.0,18,0.00,,,0.00,Wunderground v.1.15,2013-06-15 08:42:00,
2013-06-15 02:44:00,59.3,17.0,29.75,ESE,109,0.0,2.0,19,0.00,,,0.00,Wunderground v.1.15,2013-06-15 08:44:00,
2013-06-15 02:46:00,59.3,15.7,29.75,SE,125,0.0,2.0,18,0.00,,,0.00,Wunderground v.1.15,2013-06-15 08:46:00,
2013-06-15 02:48:00,59.5,15.9,29.75,SSE,156,1.0,2.0,18,0.00,,,0.00,Wunderground v.1.15,2013-06-15 08:48:00,
2013-06-15 02:50:00,59.5,15.9,29.75,SSE,163,1.0,3.0,18,0.00,,,0.00,Wunderground v.1.15,2013-06-15 08:50:00,
2013-06-15 02:52:00,59.5,15.9,29.75,SE,142,1.0,3.0,18,0.00,,,0.00,Wunderground v.1.15,2013-06-15 08:52:00,
2013-06-15 02:54:00,59.5,15.9,29.75,South,169,1.0,3.0,18,0.00,,,0.00,Wunderground v.1.15,2013-06-15 08:54:00,
2013-06-15 02:56:00,59.5,17.1,29.75,South,169,1.0,3.0,19,0.00,,,0.00,Wunderground v.1.15,2013-06-15 08:56:00,
2013-06-15 02:58:00,59.3,17.0,29.75,South,169,1.0,3.0,19,0.00,,,0.00,Wunderground v.1.15,2013-06-15 08:58:00,
2013-06-15 03:01:00,58.9,17.8,29.76,South,169,0.0,0.0,20,0.00,,,0.00,Wunderground v.1.15,2013-06-15 09:01:00,
2013-06-15 03:04:00,58.7,16.5,29.76,SSE,164,0.0,0.0,19,0.00,,,0.00,Wunderground v.1.15,2013-06-15 09:04:00,
2013-06-15 03:06:00,58.9,15.4,29.76,SE,137,0.0,0.0,18,0.00,,,0.00,Wunderground v.1.15,2013-06-15 09:06:00,
2013-06-15 03:10:00,59.2,15.7,29.76,SE,140,0.0,0.0,18,0.00,,,0.00,Wunderground v.1.15,2013-06-15 09:10:00,
2013-06-15 03:12:00,59.3,15.7,29.76,SE,141,1.0,1.0,18,0.00,,,0.00,Wunderground v.1.15,2013-06-15 09:12:00,
2013-06-15 03:14:00,59.3,15.7,29.76,ESE,113,0.0,3.0,18,0.00,,,0.00,Wunderground v.1.15,2013-06-15 09:14:00,
2013-06-15 03:18:00,59.2,19.2,29.75,East,90,0.0,3.0,21,0.00,,,0.00,Wunderground v.1.15,2013-06-15 09:18:00,
2013-06-15 03:22:00,58.6,17.6,29.75,East,88,0.0,2.0,20,0.00,,,0.00,Wunderground v.1.15,2013-06-15 09:22:00,
2013-06-15 03:24:00,58.3,18.5,29.75,East,88,0.0,2.0,21,0.00,,,0.00,Wunderground v.1.15,2013-06-15 09:24:00,
2013-06-15 03:28:00,58.0,18.2,29.75,East,89,0.0,2.0,21,0.00,,,0.00,Wunderground v.1.15,2013-06-15 09:28:00,
2013-06-15 03:31:00,57.6,17.9,29.76,East,89,0.0,0.0,21,0.00,,,0.00,Wunderground v.1.15,2013-06-15 09:31:00,
2013-06-15 03:32:00,57.5,17.8,29.76,East,88,0.0,0.0,21,0.00,,,0.00,Wunderground v.1.15,2013-06-15 09:32:00,
2013-06-15 03:34:00,57.3,18.7,29.76,East,89,0.0,0.0,22,0.00,,,0.00,Wunderground v.1.15,2013-06-15 09:34:00,
2013-06-15 03:38:00,57.0,18.5,29.76,East,88,0.0,0.0,22,0.00,,,0.00,Wunderground v.1.15,2013-06-15 09:38:00,
2013-06-15 03:40:00,56.9,18.4,29.76,East,88,0.0,0.0,22,0.00,,,0.00,Wunderground v.1.15,2013-06-15 09:40:00,
2013-06-15 03:42:00,56.7,18.2,29.76,East,89,0.0,0.0,22,0.00,,,0.00,Wunderground v.1.15,2013-06-15 09:42:00,
2013-06-15 03:46:00,56.6,18.1,29.78,East,88,0.0,0.0,22,0.00,,,0.00,Wunderground v.1.15,2013-06-15 09:46:00,
2013-06-15 03:48:00,56.6,18.1,29.78,East,91,0.0,0.0,22,0.00,,,0.00,Wunderground v.1.15,2013-06-15 09:48:00,
2013-06-15 03:52:00,56.5,18.1,29.78,SE,140,0.0,1.0,22,0.00,,,0.00,Wunderground v.1.15,2013-06-15 09:52:00,
2013-06-15 03:56:00,56.0,18.7,29.78,SE,140,0.0,1.0,23,0.00,,,0.00,Wunderground v.1.15,2013-06-15 09:56:00,
2013-06-15 04:02:00,55.7,19.4,29.78,SE,139,0.0,0.0,24,0.00,,,0.00,Wunderground v.1.15,2013-06-15 10:02:00,
2013-06-15 04:06:00,55.3,20.0,29.78,SE,139,0.0,0.0,25,0.00,,,0.00,Wunderground v.1.15,2013-06-15 10:06:00,
2013-06-15 04:08:00,55.0,19.8,29.78,SE,140,0.0,0.0,25,0.00,,,0.00,Wunderground v.1.15,2013-06-15 10:08:00,
2013-06-15 04:12:00,54.5,20.3,29.78,SE,140,0.0,0.0,26,0.00,,,0.00,Wunderground v.1.15,2013-06-15 10:12:00,
2013-06-15 04:14:00,54.2,19.1,29.78,SE,140,0.0,0.0,25,0.00,,,0.00,Wunderground v.1.15,2013-06-15 10:14:00,
2013-06-15 04:16:00,54.1,19.9,29.81,SE,139,0.0,0.0,26,0.00,,,0.00,Wunderground v.1.15,2013-06-15 10:16:00,
2013-06-15 04:20:00,53.6,18.6,29.81,SE,140,0.0,0.0,25,0.00,,,0.00,Wunderground v.1.15,2013-06-15 10:20:00,
2013-06-15 04:22:00,53.3,18.3,29.81,SE,140,0.0,0.0,25,0.00,,,0.00,Wunderground v.1.15,2013-06-15 10:22:00,
2013-06-15 04:24:00,52.9,18.9,29.81,SE,140,0.0,0.0,26,0.00,,,0.00,Wunderground v.1.15,2013-06-15 10:24:00,
2013-06-15 04:28:00,52.5,18.6,29.81,SE,140,0.0,0.0,26,0.00,,,0.00,Wunderground v.1.15,2013-06-15 10:28:00,
2013-06-15 04:31:00,52.3,18.4,29.82,SE,140,0.0,0.0,26,0.00,,,0.00,Wunderground v.1.15,2013-06-15 10:31:00,
2013-06-15 04:32:00,52.3,17.5,29.82,SE,139,0.0,0.0,25,0.00,,,0.00,Wunderground v.1.15,2013-06-15 10:32:00,
2013-06-15 04:34:00,52.2,18.3,29.82,SE,140,0.0,0.0,26,0.00,,,0.00,Wunderground v.1.15,2013-06-15 10:34:00,
2013-06-15 04:36:00,52.0,18.1,29.82,SE,140,0.0,0.0,26,0.00,,,0.00,Wunderground v.1.15,2013-06-15 10:36:00,
2013-06-15 04:38:00,52.0,17.2,29.82,SE,140,0.0,0.0,25,0.00,,,0.00,Wunderground v.1.15,2013-06-15 10:38:00,
2013-06-15 04:40:00,51.9,17.1,29.82,SE,140,0.0,0.0,25,0.00,,,0.00,Wunderground v.1.15,2013-06-15 10:40:00,
2013-06-15 04:46:00,51.4,19.3,29.84,SE,140,0.0,0.0,28,0.00,,,0.00,Wunderground v.1.15,2013-06-15 10:46:00,
2013-06-15 04:48:00,51.3,18.4,29.84,SE,140,0.0,0.0,27,0.00,,,0.00,Wunderground v.1.15,2013-06-15 10:48:00,
2013-06-15 04:50:00,51.1,18.2,29.84,SE,140,0.0,0.0,27,0.00,,,0.00,Wunderground v.1.15,2013-06-15 10:50:00,
2013-06-15 04:52:00,51.0,19.0,29.84,SE,139,0.0,0.0,28,0.00,,,0.00,Wunderground v.1.15,2013-06-15 10:52:00,
2013-06-15 04:54:00,50.8,18.0,29.84,SE,140,0.0,0.0,27,0.00,,,0.00,Wunderground v.1.15,2013-06-15 10:54:00,
2013-06-15 04:58:00,50.5,18.6,29.84,SE,140,0.0,0.0,28,0.00,,,0.00,Wunderground v.1.15,2013-06-15 10:58:00,
2013-06-15 05:02:00,50.4,18.5,29.84,SE,140,0.0,0.0,28,0.00,,,0.00,Wunderground v.1.15,2013-06-15 11:02:00,
2013-06-15 05:06:00,50.5,18.6,29.84,SE,140,0.0,0.0,28,0.00,,,0.00,Wunderground v.1.15,2013-06-15 11:06:00,
2013-06-15 05:08:00,50.5,18.6,29.84,SE,140,0.0,0.0,28,0.00,,,0.00,Wunderground v.1.15,2013-06-15 11:08:00,
2013-06-15 05:12:00,50.5,19.4,29.84,SE,140,0.0,0.0,29,0.00,,,0.00,Wunderground v.1.15,2013-06-15 11:12:00,
2013-06-15 05:14:00,50.5,17.7,29.84,SE,140,0.0,0.0,27,0.00,,,0.00,Wunderground v.1.15,2013-06-15 11:14:00,
2013-06-15 05:16:00,50.5,18.6,29.85,SE,140,0.0,0.0,28,0.00,,,0.00,Wunderground v.1.15,2013-06-15 11:16:00,
2013-06-15 05:18:00,50.5,18.6,29.85,SE,140,0.0,0.0,28,0.00,,,0.00,Wunderground v.1.15,2013-06-15 11:18:00,
2013-06-15 05:22:00,50.7,19.6,29.85,SE,140,0.0,0.0,29,0.00,,,0.00,Wunderground v.1.15,2013-06-15 11:22:00,
2013-06-15 05:24:00,50.7,19.6,29.85,SE,140,0.0,0.0,29,0.00,,,0.00,Wunderground v.1.15,2013-06-15 11:24:00,
2013-06-15 05:26:00,50.7,19.6,29.85,SE,140,0.0,0.0,29,0.00,,,0.00,Wunderground v.1.15,2013-06-15 11:26:00,
2013-06-15 05:28:00,50.7,19.6,29.85,SE,134,0.0,0.0,29,0.00,,,0.00,Wunderground v.1.15,2013-06-15 11:28:00,
2013-06-15 05:34:00,50.8,18.8,29.85,SE,134,0.0,0.0,28,0.00,,,0.00,Wunderground v.1.15,2013-06-15 11:34:00,
2013-06-15 05:36:00,50.8,18.0,29.85,SE,134,0.0,1.0,27,0.00,,,0.00,Wunderground v.1.15,2013-06-15 11:36:00,
2013-06-15 05:40:00,51.3,18.4,29.85,SE,134,0.0,1.0,27,0.00,,,0.00,Wunderground v.1.15,2013-06-15 11:40:00,
2013-06-15 05:42:00,51.4,18.5,29.85,SE,134,0.0,1.0,27,0.00,,,0.00,Wunderground v.1.15,2013-06-15 11:42:00,
2013-06-15 05:44:00,51.4,18.5,29.85,SE,134,0.0,1.0,27,0.00,,,0.00,Wunderground v.1.15,2013-06-15 11:44:00,
2013-06-15 05:48:00,51.3,19.3,29.85,SE,134,0.0,1.0,28,0.00,,,0.00,Wunderground v.1.15,2013-06-15 11:48:00,
2013-06-15 05:50:00,51.3,19.3,29.85,SE,134,0.0,0.0,28,0.00,,,0.00,Wunderground v.1.15,2013-06-15 11:50:00,
2013-06-15 05:56:00,51.0,19.8,29.85,SE,134,0.0,0.0,29,0.00,,,0.00,Wunderground v.1.15,2013-06-15 11:56:00,
2013-06-15 06:01:00,50.7,19.6,29.86,SE,134,0.0,0.0,29,0.00,,,0.00,Wunderground v.1.15,2013-06-15 12:01:00,
2013-06-15 06:02:00,50.5,20.9,29.86,SE,134,0.0,0.0,31,0.00,,,0.00,Wunderground v.1.15,2013-06-15 12:02:00,
2013-06-15 06:06:00,50.4,20.9,29.86,SE,134,0.0,0.0,31,0.00,,,0.00,Wunderground v.1.15,2013-06-15 12:06:00,
2013-06-15 06:08:00,50.1,20.6,29.86,SE,134,0.0,0.0,31,0.00,,,0.00,Wunderground v.1.15,2013-06-15 12:08:00,
2013-06-15 06:10:00,50.1,20.6,29.86,SE,134,0.0,0.0,31,0.00,,,0.00,Wunderground v.1.15,2013-06-15 12:10:00,
2013-06-15 06:16:00,49.6,20.2,29.89,SE,134,0.0,0.0,31,0.00,,,0.00,Wunderground v.1.15,2013-06-15 12:16:00,
2013-06-15 06:18:00,49.6,20.9,29.89,SE,134,0.0,0.0,32,0.00,,,0.00,Wunderground v.1.15,2013-06-15 12:18:00,
2013-06-15 06:20:00,49.5,22.3,29.89,SE,134,0.0,0.0,34,0.00,,,0.00,Wunderground v.1.15,2013-06-15 12:20:00,
2013-06-15 06:24:00,49.4,20.0,29.89,SE,134,0.0,0.0,31,0.00,,,0.00,Wunderground v.1.15,2013-06-15 12:24:00,
2013-06-15 06:26:00,49.4,20.0,29.89,SE,134,0.0,0.0,31,0.00,,,0.00,Wunderground v.1.15,2013-06-15 12:26:00,
2013-06-15 06:31:00,49.4,21.5,29.89,SE,134,0.0,0.0,33,0.00,,,0.00,Wunderground v.1.15,2013-06-15 12:31:00,
2013-06-15 06:32:00,49.4,21.5,29.89,SE,134,0.0,0.0,33,0.00,,,0.00,Wunderground v.1.15,2013-06-15 12:32:00,
2013-06-15 06:36:00,49.5,20.8,29.89,SE,134,0.0,0.0,32,0.00,,,0.00,Wunderground v.1.15,2013-06-15 12:36:00,
2013-06-15 06:40:00,49.9,21.9,29.89,SE,134,0.0,0.0,33,0.00,,,0.00,Wunderground v.1.15,2013-06-15 12:40:00,
2013-06-15 06:42:00,50.2,21.4,29.89,SE,134,0.0,2.0,32,0.00,,,0.00,Wunderground v.1.15,2013-06-15 12:42:00,
2013-06-15 06:46:00,51.1,22.2,29.89,SE,134,0.0,2.0,32,0.00,,,0.00,Wunderground v.1.15,2013-06-15 12:46:00,
2013-06-15 06:50:00,51.9,21.4,29.89,SE,134,0.0,0.0,30,0.00,,,0.00,Wunderground v.1.15,2013-06-15 12:50:00,
2013-06-15 06:52:00,52.3,20.1,29.89,SE,134,0.0,0.0,28,0.00,,,0.00,Wunderground v.1.15,2013-06-15 12:52:00,
2013-06-15 06:54:00,52.6,19.5,29.89,SE,134,0.0,0.0,27,0.00,,,0.00,Wunderground v.1.15,2013-06-15 12:54:00,
2013-06-15 06:56:00,53.1,20.8,29.89,ESE,107,0.0,2.0,28,0.00,,,0.00,Wunderground v.1.15,2013-06-15 12:56:00,
2013-06-15 06:58:00,53.5,21.2,29.89,ESE,107,1.0,2.0,28,0.00,,,0.00,Wunderground v.1.15,2013-06-15 12:58:00,
2013-06-15 07:01:00,53.9,21.5,29.87,ESE,107,1.0,1.0,28,0.00,,,0.00,Wunderground v.1.15,2013-06-15 13:01:00,
2013-06-15 07:04:00,54.5,22.0,29.87,SE,133,1.0,3.0,28,0.00,,,0.00,Wunderground v.1.15,2013-06-15 13:04:00,
2013-06-15 07:06:00,54.7,22.2,29.87,SE,133,1.0,3.0,28,0.00,,,0.00,Wunderground v.1.15,2013-06-15 13:06:00,
2013-06-15 07:08:00,54.8,22.3,29.87,SE,140,1.0,3.0,28,0.00,,,0.00,Wunderground v.1.15,2013-06-15 13:08:00,
2013-06-15 07:10:00,55.0,21.6,29.87,SE,144,1.0,1.0,27,0.00,,,0.00,Wunderground v.1.15,2013-06-15 13:10:00,
2013-06-15 07:12:00,55.3,22.7,29.87,SSE,147,1.0,4.0,28,0.00,,,0.00,Wunderground v.1.15,2013-06-15 13:12:00,
2013-06-15 07:14:00,55.4,22.8,29.87,ESE,115,1.0,4.0,28,0.00,,,0.00,Wunderground v.1.15,2013-06-15 13:14:00,
2013-06-15 07:16:00,55.6,22.1,29.88,SE,146,1.0,4.0,27,0.00,,,0.00,Wunderground v.1.15,2013-06-15 13:16:00,
2013-06-15 07:20:00,55.9,22.4,29.88,SE,131,1.0,1.0,27,0.00,,,0.00,Wunderground v.1.15,2013-06-15 13:20:00,
2013-06-15 07:22:00,56.0,22.4,29.88,SE,131,1.0,1.0,27,0.00,,,0.00,Wunderground v.1.15,2013-06-15 13:22:00,
2013-06-15 07:24:00,56.3,23.6,29.88,SE,131,1.0,1.0,28,0.00,,,0.00,Wunderground v.1.15,2013-06-15 13:24:00,
2013-06-15 07:28:00,56.5,22.0,29.88,SE,131,0.0,1.0,26,0.00,,,0.00,Wunderground v.1.15,2013-06-15 13:28:00,
2013-06-15 07:30:00,56.7,23.0,29.88,SE,132,0.0,0.0,27,0.00,,,0.00,Wunderground v.1.15,2013-06-15 13:30:00,
2013-06-15 07:34:00,57.2,22.6,29.88,SE,131,0.0,0.0,26,0.00,,,0.00,Wunderground v.1.15,2013-06-15 13:34:00,
2013-06-15 07:36:00,57.3,24.4,29.88,SE,131,0.0,0.0,28,0.00,,,0.00,Wunderground v.1.15,2013-06-15 13:36:00,
2013-06-15 07:38:00,57.6,24.7,29.88,SE,131,0.0,0.0,28,0.00,,,0.00,Wunderground v.1.15,2013-06-15 13:38:00,
2013-06-15 07:44:00,58.6,25.6,29.88,SE,131,0.0,0.0,28,0.00,,,0.00,Wunderground v.1.15,2013-06-15 13:44:00,
2013-06-15 07:48:00,59.2,26.1,29.87,SE,131,0.0,0.0,28,0.00,,,0.00,Wunderground v.1.15,2013-06-15 13:48:00,
2013-06-15 07:50:00,59.5,25.5,29.87,SE,131,0.0,1.0,27,0.00,,,0.00,Wunderground v.1.15,2013-06-15 13:50:00,
2013-06-15 07:54:00,60.4,26.2,29.87,SE,131,0.0,2.0,27,0.00,,,0.00,Wunderground v.1.15,2013-06-15 13:54:00,
2013-06-15 07:56:00,60.7,24.6,29.87,SE,131,1.0,2.0,25,0.00,,,0.00,Wunderground v.1.15,2013-06-15 13:56:00,
2013-06-15 07:58:00,61.2,23.1,29.87,SE,131,1.0,2.0,23,0.00,,,0.00,Wunderground v.1.15,2013-06-15 13:58:00,
2013-06-15 08:01:00,61.5,22.3,29.85,SE,131,1.0,2.0,22,0.00,,,0.00,Wunderground v.1.15,2013-06-15 14:01:00,
2013-06-15 08:02:00,61.6,22.3,29.85,SE,130,1.0,2.0,22,0.00,,,0.00,Wunderground v.1.15,2013-06-15 14:02:00,
2013-06-15 08:04:00,62.1,23.8,29.85,SE,131,1.0,2.0,23,0.00,,,0.00,Wunderground v.1.15,2013-06-15 14:04:00,
2013-06-15 08:06:00,62.4,24.1,29.85,SE,132,1.0,2.0,23,0.00,,,0.00,Wunderground v.1.15,2013-06-15 14:06:00,
2013-06-15 08:10:00,63.5,22.8,29.85,SE,131,1.0,1.0,21,0.00,,,0.00,Wunderground v.1.15,2013-06-15 14:10:00,
2013-06-15 08:12:00,64.0,25.4,29.85,SE,131,0.0,1.0,23,0.00,,,0.00,Wunderground v.1.15,2013-06-15 14:12:00,
2013-06-15 08:14:00,64.7,22.7,29.85,SE,131,0.0,1.0,20,0.00,,,0.00,Wunderground v.1.15,2013-06-15 14:14:00,
2013-06-15 08:16:00,65.0,21.7,29.86,SE,131,0.0,1.0,19,0.00,,,0.00,Wunderground v.1.15,2013-06-15 14:16:00,
2013-06-15 08:20:00,65.6,23.4,29.86,SE,131,0.0,0.0,20,0.00,,,0.00,Wunderground v.1.15,2013-06-15 14:20:00,
2013-06-15 08:22:00,66.1,22.6,29.86,SE,131,0.0,0.0,19,0.00,,,0.00,Wunderground v.1.15,2013-06-15 14:22:00,
2013-06-15 08:24:00,66.3,22.8,29.86,SE,132,0.0,0.0,19,0.00,,,0.00,Wunderground v.1.15,2013-06-15 14:24:00,
2013-06-15 08:26:00,66.4,25.2,29.86,SE,131,0.0,0.0,21,0.00,,,0.00,Wunderground v.1.15,2013-06-15 14:26:00,
2013-06-15 08:28:00,66.8,23.2,29.86,SE,131,0.0,0.0,19,0.00,,,0.00,Wunderground v.1.15,2013-06-15 14:28:00,
2013-06-15 08:31:00,67.6,22.5,29.85,SE,130,0.0,0.0,18,0.00,,,0.00,Wunderground v.1.15,2013-06-15 14:31:00,
2013-06-15 08:32:00,67.9,22.8,29.85,SE,131,0.0,0.0,18,0.00,,,0.00,Wunderground v.1.15,2013-06-15 14:32:00,
2013-06-15 08:36:00,67.9,24.1,29.85,SE,131,0.0,2.0,19,0.00,,,0.00,Wunderground v.1.15,2013-06-15 14:36:00,
2013-06-15 08:38:00,67.9,24.1,29.85,SE,131,0.0,2.0,19,0.00,,,0.00,Wunderground v.1.15,2013-06-15 14:38:00,
2013-06-15 08:40:00,67.9,24.1,29.85,SE,130,0.0,1.0,19,0.00,,,0.00,Wunderground v.1.15,2013-06-15 14:40:00,
2013-06-15 08:42:00,68.1,20.2,29.85,SE,131,0.0,1.0,16,0.00,,,0.00,Wunderground v.1.15,2013-06-15 14:42:00,
2013-06-15 08:44:00,68.3,20.3,29.85,SE,131,1.0,1.0,16,0.00,,,0.00,Wunderground v.1.15,2013-06-15 14:44:00,
2013-06-15 08:48:00,69.3,21.1,29.85,SE,131,0.0,2.0,16,0.00,,,0.00,Wunderground v.1.15,2013-06-15 14:48:00,
2013-06-15 08:50:00,69.8,20.0,29.85,SE,130,0.0,1.0,15,0.00,,,0.00,Wunderground v.1.15,2013-06-15 14:50:00,
2013-06-15 08:52:00,70.3,20.4,29.85,SE,131,0.0,1.0,15,0.00,,,0.00,Wunderground v.1.15,2013-06-15 14:52:00,
2013-06-15 08:56:00,70.6,20.7,29.85,SE,130,0.0,1.0,15,0.00,,,0.00,Wunderground v.1.15,2013-06-15 14:56:00,
2013-06-15 08:58:00,70.8,22.3,29.85,SE,131,0.0,1.0,16,0.00,,,0.00,Wunderground v.1.15,2013-06-15 14:58:00,
2013-06-15 09:01:00,71.1,21.1,29.82,SE,131,0.0,0.0,15,0.00,,,0.00,Wunderground v.1.15,2013-06-15 15:01:00,
2013-06-15 09:02:00,71.5,21.4,29.82,SE,131,0.0,0.0,15,0.00,,,0.00,Wunderground v.1.15,2013-06-15 15:02:00,
2013-06-15 09:04:00,71.6,16.2,29.82,SE,131,0.0,2.0,12,0.00,,,0.00,Wunderground v.1.15,2013-06-15 15:04:00,
2013-06-15 09:06:00,71.5,14.2,29.82,SE,131,1.0,2.0,11,0.00,,,0.00,Wunderground v.1.15,2013-06-15 15:06:00,
2013-06-15 09:08:00,71.8,16.4,29.82,SE,131,1.0,2.0,12,0.00,,,0.00,Wunderground v.1.15,2013-06-15 15:08:00,
2013-06-15 09:10:00,72.3,20.4,29.82,SE,131,1.0,1.0,14,0.00,,,0.00,Wunderground v.1.15,2013-06-15 15:10:00,
2013-06-15 09:12:00,72.5,14.9,29.82,SE,131,1.0,1.0,11,0.00,,,0.00,Wunderground v.1.15,2013-06-15 15:12:00,
2013-06-15 09:14:00,72.8,17.2,29.82,SE,142,1.0,2.0,12,0.00,,,0.00,Wunderground v.1.15,2013-06-15 15:14:00,
2013-06-15 09:18:00,73.0,19.2,29.87,SE,142,1.0,2.0,13,0.00,,,0.00,Wunderground v.1.15,2013-06-15 15:18:00,
2013-06-15 09:20:00,72.8,15.2,29.87,SE,142,1.0,1.0,11,0.00,,,0.00,Wunderground v.1.15,2013-06-15 15:20:00,
2013-06-15 09:22:00,73.0,24.1,29.87,SE,142,1.0,1.0,16,0.00,,,0.00,Wunderground v.1.15,2013-06-15 15:22:00,
2013-06-15 09:26:00,73.5,19.6,29.87,SE,142,0.0,1.0,13,0.00,,,0.00,Wunderground v.1.15,2013-06-15 15:26:00,
2013-06-15 09:28:00,73.3,15.6,29.87,SE,142,0.0,1.0,11,0.00,,,0.00,Wunderground v.1.15,2013-06-15 15:28:00,
2013-06-15 09:32:00,73.5,19.6,29.88,SE,142,0.0,2.0,13,0.00,,,0.00,Wunderground v.1.15,2013-06-15 15:32:00,
2013-06-15 09:34:00,73.3,15.6,29.88,SE,142,1.0,2.0,11,0.00,,,0.00,Wunderground v.1.15,2013-06-15 15:34:00,
2013-06-15 09:36:00,73.3,17.6,29.88,SE,142,1.0,2.0,12,0.00,,,0.00,Wunderground v.1.15,2013-06-15 15:36:00,
2013-06-15 09:40:00,73.3,19.4,29.88,SE,142,1.0,2.0,13,0.00,,,0.00,Wunderground v.1.15,2013-06-15 15:40:00,
2013-06-15 09:42:00,73.2,25.7,29.88,SE,142,1.0,3.0,17,0.00,,,0.00,Wunderground v.1.15,2013-06-15 15:42:00,
2013-06-15 09:44:00,73.0,17.3,29.88,SE,142,1.0,3.0,12,0.00,,,0.00,Wunderground v.1.15,2013-06-15 15:44:00,
2013-06-15 09:46:00,73.3,17.6,29.87,SE,142,1.0,3.0,12,0.00,,,0.00,Wunderground v.1.15,2013-06-15 15:46:00,
2013-06-15 09:48:00,73.7,19.8,29.87,SE,142,1.0,3.0,13,0.00,,,0.00,Wunderground v.1.15,2013-06-15 15:48:00,
2013-06-15 09:50:00,74.0,20.0,29.87,SE,142,1.0,1.0,13,0.00,,,0.00,Wunderground v.1.15,2013-06-15 15:50:00,
2013-06-15 09:52:00,74.4,20.3,29.87,SE,142,1.0,1.0,13,0.00,,,0.00,Wunderground v.1.15,2013-06-15 15:52:00,
2013-06-15 09:54:00,74.9,22.5,29.87,SE,142,0.0,1.0,14,0.00,,,0.00,Wunderground v.1.15,2013-06-15 15:54:00,
2013-06-15 09:56:00,75.4,19.2,29.87,North,5,0.0,3.0,12,0.00,,,0.00,Wunderground v.1.15,2013-06-15 15:56:00,
2013-06-15 09:58:00,75.3,19.1,29.87,North,5,1.0,3.0,12,0.00,,,0.00,Wunderground v.1.15,2013-06-15 15:58:00,
2013-06-15 10:02:00,75.1,20.9,29.85,NNE,13,2.0,2.0,13,0.00,,,0.00,Wunderground v.1.15,2013-06-15 16:02:00,
2013-06-15 10:06:00,75.1,17.0,29.85,NNE,13,2.0,3.0,11,0.00,,,0.00,Wunderground v.1.15,2013-06-15 16:06:00,
2013-06-15 10:08:00,75.3,14.9,29.85,NNE,13,1.0,3.0,10,0.00,,,0.00,Wunderground v.1.15,2013-06-15 16:08:00,
2013-06-15 10:12:00,75.6,17.3,29.85,ENE,65,1.0,2.0,11,0.00,,,0.00,Wunderground v.1.15,2013-06-15 16:12:00,
2013-06-15 10:14:00,76.0,17.6,29.85,ENE,65,1.0,2.0,11,0.00,,,0.00,Wunderground v.1.15,2013-06-15 16:14:00,
2013-06-15 10:16:00,76.3,21.8,29.86,ENE,64,1.0,2.0,13,0.00,,,0.00,Wunderground v.1.15,2013-06-15 16:16:00,
2013-06-15 10:18:00,76.7,22.1,29.86,ENE,61,1.0,3.0,13,0.00,,,0.00,Wunderground v.1.15,2013-06-15 16:18:00,
2013-06-15 10:20:00,76.8,18.3,29.86,NNW,332,1.0,1.0,11,0.00,,,0.00,Wunderground v.1.15,2013-06-15 16:20:00,
2013-06-15 10:24:00,77.0,18.4,29.86,NNE,30,1.0,1.0,11,0.00,,,0.00,Wunderground v.1.15,2013-06-15 16:24:00,
2013-06-15 10:28:00,77.7,21.0,29.86,NNE,32,1.0,3.0,12,0.00,,,0.00,Wunderground v.1.15,2013-06-15 16:28:00,
2013-06-15 10:31:00,77.4,20.8,29.86,ENE,59,1.0,3.0,12,0.00,,,0.00,Wunderground v.1.15,2013-06-15 16:31:00,
2013-06-15 10:36:00,77.2,20.6,29.86,NNE,17,2.0,4.0,12,0.00,,,0.00,Wunderground v.1.15,2013-06-15 16:36:00,
2013-06-15 10:38:00,77.0,20.5,29.86,NNE,24,2.0,4.0,12,0.00,,,0.00,Wunderground v.1.15,2013-06-15 16:38:00,
2013-06-15 10:40:00,76.8,22.2,29.86,North,355,2.0,2.0,13,0.00,,,0.00,Wunderground v.1.15,2013-06-15 16:40:00,
2013-06-15 10:44:00,77.0,22.4,29.86,NW,304,2.0,5.0,13,0.00,,,0.00,Wunderground v.1.15,2013-06-15 16:44:00,
2013-06-15 10:46:00,77.0,24.1,29.86,NW,311,3.0,5.0,14,0.00,,,0.00,Wunderground v.1.15,2013-06-15 16:46:00,
2013-06-15 10:48:00,77.0,22.4,29.86,NW,311,2.0,5.0,13,0.00,,,0.00,Wunderground v.1.15,2013-06-15 16:48:00,
2013-06-15 10:52:00,77.4,26.1,29.86,NW,311,2.0,2.0,15,0.00,,,0.00,Wunderground v.1.15,2013-06-15 16:52:00,
2013-06-15 10:54:00,77.7,22.9,29.86,NW,311,2.0,2.0,13,0.00,,,0.00,Wunderground v.1.15,2013-06-15 16:54:00,
2013-06-15 10:58:00,78.6,23.6,29.86,NW,311,1.0,2.0,13,0.00,,,0.00,Wunderground v.1.15,2013-06-15 16:58:00,
2013-06-15 11:04:00,79.0,25.7,29.85,NW,315,2.0,4.0,14,0.00,,,0.00,Wunderground v.1.15,2013-06-15 17:04:00,
2013-06-15 11:06:00,78.8,23.8,29.85,NNE,19,2.0,5.0,13,0.00,,,0.00,Wunderground v.1.15,2013-06-15 17:06:00,
2013-06-15 11:08:00,78.8,25.5,29.85,NNW,340,3.0,5.0,14,0.00,,,0.00,Wunderground v.1.15,2013-06-15 17:08:00,
2013-06-15 11:14:00,79.0,25.7,29.85,NNE,17,2.0,4.0,14,0.00,,,0.00,Wunderground v.1.15,2013-06-15 17:14:00,
2013-06-15 11:18:00,78.8,27.2,29.85,NW,317,2.0,4.0,15,0.00,,,0.00,Wunderground v.1.15,2013-06-15 17:18:00,
2013-06-15 11:20:00,78.6,27.1,29.85,NNE,27,2.0,2.0,15,0.00,,,0.00,Wunderground v.1.15,2013-06-15 17:20:00,
2013-06-15 11:22:00,78.5,30.0,29.85,NNE,31,3.0,3.0,17,0.00,,,0.00,Wunderground v.1.15,2013-06-15 17:22:00,
2013-06-15 11:24:00,78.5,28.5,29.85,NNW,342,3.0,3.0,16,0.00,,,0.00,Wunderground v.1.15,2013-06-15 17:24:00,
2013-06-15 11:26:00,78.3,26.8,29.85,NNW,333,3.0,3.0,15,0.00,,,0.00,Wunderground v.1.15,2013-06-15 17:26:00,
2013-06-15 11:31:00,77.9,28.1,29.86,NNW,332,2.0,3.0,16,0.00,,,0.00,Wunderground v.1.15,2013-06-15 17:31:00,
2013-06-15 11:32:00,77.9,29.5,29.86,North,5,2.0,4.0,17,0.00,,,0.00,Wunderground v.1.15,2013-06-15 17:32:00,
2013-06-15 11:34:00,78.1,28.2,29.86,North,5,2.0,4.0,16,0.00,,,0.00,Wunderground v.1.15,2013-06-15 17:34:00,
2013-06-15 11:36:00,78.5,28.5,29.86,NNW,338,2.0,5.0,16,0.00,,,0.00,Wunderground v.1.15,2013-06-15 17:36:00,
2013-06-15 11:40:00,79.0,27.4,29.86,NNW,340,2.0,5.0,15,0.00,,,0.00,Wunderground v.1.15,2013-06-15 17:40:00,
2013-06-15 11:42:00,79.4,26.0,29.86,NNW,339,2.0,5.0,14,0.00,,,0.00,Wunderground v.1.15,2013-06-15 17:42:00,
2013-06-15 11:44:00,79.6,29.4,29.86,NNW,338,1.0,5.0,16,0.00,,,0.00,Wunderground v.1.15,2013-06-15 17:44:00,
2013-06-15 11:46:00,79.6,27.9,29.84,NNW,333,2.0,5.0,15,0.00,,,0.00,Wunderground v.1.15,2013-06-15 17:46:00,
2013-06-15 11:50:00,79.8,28.0,29.84,NNW,333,2.0,3.0,15,0.00,,,0.00,Wunderground v.1.15,2013-06-15 17:50:00,
2013-06-15 11:52:00,79.9,26.4,29.84,NNE,26,2.0,3.0,14,0.00,,,0.00,Wunderground v.1.15,2013-06-15 17:52:00,
2013-06-15 11:54:00,80.3,30.0,29.84,NNW,329,2.0,3.0,16,0.00,,,0.00,Wunderground v.1.15,2013-06-15 17:54:00,
2013-06-15 11:56:00,80.7,27.0,29.84,SW,221,2.0,3.0,14,0.00,,,0.00,Wunderground v.1.15,2013-06-15 17:56:00,
2013-06-15 12:02:00,81.6,26.0,29.83,WNW,302,4.0,11.0,13,0.00,,,0.00,Wunderground v.1.15,2013-06-15 18:02:00,
2013-06-15 12:04:00,82.0,26.3,29.83,NW,304,4.0,11.0,13,0.00,,,0.00,Wunderground v.1.15,2013-06-15 18:04:00,
2013-06-15 12:08:00,82.8,28.7,29.83,WNW,282,4.0,11.0,14,0.00,,,0.00,Wunderground v.1.15,2013-06-15 18:08:00,
2013-06-15 12:10:00,82.8,25.0,29.83,NE,34,5.0,10.0,12,0.00,,,0.00,Wunderground v.1.15,2013-06-15 18:10:00,
2013-06-15 12:12:00,82.8,26.9,29.83,NW,311,5.0,10.0,13,0.00,,,0.00,Wunderground v.1.15,2013-06-15 18:12:00,
2013-06-15 12:14:00,83.0,25.1,29.83,SW,225,5.0,10.0,12,0.00,,,0.00,Wunderground v.1.15,2013-06-15 18:14:00,
2013-06-15 12:16:00,83.2,25.3,29.82,NW,319,5.0,10.0,12,0.00,,,0.00,Wunderground v.1.15,2013-06-15 18:16:00,
2013-06-15 12:18:00,83.6,25.6,29.82,WNW,302,5.0,10.0,12,0.00,,,0.00,Wunderground v.1.15,2013-06-15 18:18:00,
2013-06-15 12:20:00,84.0,29.7,29.82,NNW,327,5.0,5.0,14,0.00,,,0.00,Wunderground v.1.15,2013-06-15 18:20:00,
2013-06-15 12:24:00,84.3,24.0,29.82,NW,310,3.0,6.0,11,0.00,,,0.00,Wunderground v.1.15,2013-06-15 18:24:00,
2013-06-15 12:26:00,84.5,28.2,29.82,SSE,165,3.0,6.0,13,0.00,,,0.00,Wunderground v.1.15,2013-06-15 18:26:00,
2013-06-15 12:28:00,84.5,24.2,29.82,North,5,3.0,6.0,11,0.00,,,0.00,Wunderground v.1.15,2013-06-15 18:28:00,
2013-06-15 12:32:00,84.1,26.0,29.83,NW,304,4.0,4.0,12,0.00,,,0.00,Wunderground v.1.15,2013-06-15 18:32:00,
2013-06-15 12:34:00,84.0,23.8,29.83,WSW,238,3.0,4.0,11,0.00,,,0.00,Wunderground v.1.15,2013-06-15 18:34:00,
2013-06-15 12:38:00,82.8,22.9,29.83,NW,309,3.0,15.0,11,0.00,,,0.00,Wunderground v.1.15,2013-06-15 18:38:00,
2013-06-15 12:40:00,82.4,24.7,29.83,West,264,3.0,3.0,12,0.00,,,0.00,Wunderground v.1.15,2013-06-15 18:40:00,
2013-06-15 12:42:00,82.0,22.3,29.83,West,269,3.0,3.0,11,0.00,,,0.00,Wunderground v.1.15,2013-06-15 18:42:00,
2013-06-15 12:44:00,81.8,24.2,29.83,West,262,3.0,3.0,12,0.00,,,0.00,Wunderground v.1.15,2013-06-15 18:44:00,
2013-06-15 12:46:00,81.6,26.0,29.84,West,264,3.0,3.0,13,0.00,,,0.00,Wunderground v.1.15,2013-06-15 18:46:00,
2013-06-15 12:48:00,81.4,25.8,29.84,SSW,207,3.0,4.0,13,0.00,,,0.00,Wunderground v.1.15,2013-06-15 18:48:00,
2013-06-15 12:52:00,81.4,25.8,29.84,WSW,251,3.0,3.0,13,0.00,,,0.00,Wunderground v.1.15,2013-06-15 18:52:00,
2013-06-15 12:54:00,81.4,25.8,29.84,SW,227,3.0,5.0,13,0.00,,,0.00,Wunderground v.1.15,2013-06-15 18:54:00,
2013-06-15 12:56:00,81.4,23.9,29.84,WSW,244,3.0,6.0,12,0.00,,,0.00,Wunderground v.1.15,2013-06-15 18:56:00,
2013-06-15 13:01:00,82.0,26.3,29.84,NW,304,3.0,3.0,13,0.00,,,0.00,Wunderground v.1.15,2013-06-15 19:01:00,
2013-06-15 13:02:00,82.2,24.5,29.84,NNW,328,3.0,3.0,12,0.00,,,0.00,Wunderground v.1.15,2013-06-15 19:02:00,
2013-06-15 13:06:00,82.4,26.6,29.84,SW,228,3.0,3.0,13,0.00,,,0.00,Wunderground v.1.15,2013-06-15 19:06:00,
2013-06-15 13:08:00,82.4,24.7,29.84,SW,219,2.0,3.0,12,0.00,,,0.00,Wunderground v.1.15,2013-06-15 19:08:00,
2013-06-15 13:12:00,82.0,26.3,29.84,NW,306,3.0,3.0,13,0.00,,,0.00,Wunderground v.1.15,2013-06-15 19:12:00,
2013-06-15 13:14:00,82.0,26.3,29.84,South,178,3.0,5.0,13,0.00,,,0.00,Wunderground v.1.15,2013-06-15 19:14:00,
2013-06-15 13:20:00,81.6,26.0,29.85,SW,224,4.0,4.0,13,0.00,,,0.00,Wunderground v.1.15,2013-06-15 19:20:00,
2013-06-15 13:26:00,81.2,25.7,29.85,SSW,193,4.0,8.0,13,0.00,,,0.00,Wunderground v.1.15,2013-06-15 19:26:00,
2013-06-15 13:31:00,80.3,24.9,29.86,SSW,213,5.0,5.0,13,0.00,,,0.00,Wunderground v.1.15,2013-06-15 19:31:00,
2013-06-15 13:32:00,80.1,24.8,29.86,West,262,6.0,6.0,13,0.00,,,0.00,Wunderground v.1.15,2013-06-15 19:32:00,
2013-06-15 13:34:00,79.6,26.2,29.86,SSE,155,7.0,7.0,14,0.00,,,0.00,Wunderground v.1.15,2013-06-15 19:34:00,
2013-06-15 13:36:00,79.4,26.0,29.86,SSW,200,7.0,7.0,14,0.00,,,0.00,Wunderground v.1.15,2013-06-15 19:36:00,
2013-06-15 13:38:00,79.4,27.7,29.86,SSW,207,7.0,7.0,15,0.00,,,0.00,Wunderground v.1.15,2013-06-15 19:38:00,
2013-06-15 13:40:00,79.4,27.7,29.86,SW,234,7.0,7.0,15,0.00,,,0.00,Wunderground v.1.15,2013-06-15 19:40:00,
2013-06-15 13:44:00,79.8,26.3,29.86,SSW,209,6.0,7.0,14,0.00,,,0.00,Wunderground v.1.15,2013-06-15 19:44:00,
2013-06-15 13:46:00,79.9,28.1,29.87,South,176,6.0,9.0,15,0.00,,,0.00,Wunderground v.1.15,2013-06-15 19:46:00,
2013-06-15 13:48:00,80.1,26.6,29.87,South,171,6.0,9.0,14,0.00,,,0.00,Wunderground v.1.15,2013-06-15 19:48:00,
2013-06-15 13:50:00,80.7,30.3,29.87,SSW,194,6.0,6.0,16,0.00,,,0.00,Wunderground v.1.15,2013-06-15 19:50:00,
2013-06-15 13:52:00,81.4,29.3,29.87,SSW,192,5.0,6.0,15,0.00,,,0.00,Wunderground v.1.15,2013-06-15 19:52:00,
2013-06-15 13:54:00,81.8,27.9,29.87,SSW,198,5.0,7.0,14,0.00,,,0.00,Wunderground v.1.15,2013-06-15 19:54:00,
2013-06-15 13:56:00,82.2,29.9,29.87,SSW,201,4.0,7.0,15,0.00,,,0.00,Wunderground v.1.15,2013-06-15 19:56:00,
2013-06-15 14:01:00,83.4,32.5,29.83,WSW,240,3.0,4.0,16,0.00,,,0.00,Wunderground v.1.15,2013-06-15 20:01:00,
2013-06-15 14:02:00,83.6,32.6,29.83,SW,233,2.0,4.0,16,0.00,,,0.00,Wunderground v.1.15,2013-06-15 20:02:00,
2013-06-15 14:04:00,83.8,29.5,29.83,WSW,241,2.0,4.0,14,0.00,,,0.00,Wunderground v.1.15,2013-06-15 20:04:00,
2013-06-15 14:06:00,83.6,27.5,29.83,SW,230,2.0,4.0,13,0.00,,,0.00,Wunderground v.1.15,2013-06-15 20:06:00,
2013-06-15 14:10:00,83.0,27.1,29.83,WSW,249,2.0,3.0,13,0.00,,,0.00,Wunderground v.1.15,2013-06-15 20:10:00,
2013-06-15 14:12:00,82.6,26.7,29.83,WSW,248,2.0,3.0,13,0.00,,,0.00,Wunderground v.1.15,2013-06-15 20:12:00,
2013-06-15 14:14:00,83.0,27.1,29.83,SW,227,2.0,3.0,13,0.00,,,0.00,Wunderground v.1.15,2013-06-15 20:14:00,
2013-06-15 14:16:00,83.4,27.4,29.83,WNW,283,2.0,3.0,13,0.00,,,0.00,Wunderground v.1.15,2013-06-15 20:16:00,
2013-06-15 14:20:00,84.3,28.1,29.83,WSW,251,2.0,5.0,13,0.00,,,0.00,Wunderground v.1.15,2013-06-15 20:20:00,
2013-06-15 14:22:00,84.3,26.1,29.83,WSW,240,3.0,5.0,12,0.00,,,0.00,Wunderground v.1.15,2013-06-15 20:22:00,
2013-06-15 14:24:00,84.3,28.1,29.83,SSW,197,3.0,11.0,13,0.00,,,0.00,Wunderground v.1.15,2013-06-15 20:24:00,
2013-06-15 14:28:00,83.8,23.7,29.83,SSW,211,4.0,11.0,11,0.00,,,0.00,Wunderground v.1.15,2013-06-15 20:28:00,
2013-06-15 14:32:00,83.2,32.3,29.83,SW,228,3.0,4.0,16,0.00,,,0.00,Wunderground v.1.15,2013-06-15 20:32:00,
2013-06-15 14:36:00,82.6,24.8,29.83,SW,227,3.0,4.0,12,0.00,,,0.00,Wunderground v.1.15,2013-06-15 20:36:00,
2013-06-15 14:38:00,82.4,26.6,29.83,WSW,240,3.0,4.0,13,0.00,,,0.00,Wunderground v.1.15,2013-06-15 20:38:00,
2013-06-15 14:42:00,82.6,24.8,29.83,SSE,148,2.0,5.0,12,0.00,,,0.00,Wunderground v.1.15,2013-06-15 20:42:00,
2013-06-15 14:44:00,82.6,26.7,29.83,SSW,209,2.0,5.0,13,0.00,,,0.00,Wunderground v.1.15,2013-06-15 20:44:00,
2013-06-15 14:48:00,82.6,24.8,29.82,SW,217,1.0,5.0,12,0.00,,,0.00,Wunderground v.1.15,2013-06-15 20:48:00,
2013-06-15 14:50:00,82.8,22.9,29.82,SW,217,1.0,1.0,11,0.00,,,0.00,Wunderground v.1.15,2013-06-15 20:50:00,
2013-06-15 14:52:00,83.0,25.1,29.82,SW,217,0.0,1.0,12,0.00,,,0.00,Wunderground v.1.15,2013-06-15 20:52:00,
2013-06-15 14:54:00,83.0,25.1,29.82,SW,217,0.0,4.0,12,0.00,,,0.00,Wunderground v.1.15,2013-06-15 20:54:00,
2013-06-15 14:56:00,82.8,25.0,29.82,SW,217,0.0,4.0,12,0.00,,,0.00,Wunderground v.1.15,2013-06-15 20:56:00,
2013-06-15 15:01:00,82.4,26.6,29.84,WSW,247,2.0,3.0,13,0.00,,,0.00,Wunderground v.1.15,2013-06-15 21:01:00,
2013-06-15 15:02:00,82.0,28.1,29.84,WSW,238,2.0,10.0,14,0.00,,,0.00,Wunderground v.1.15,2013-06-15 21:02:00,
2013-06-15 15:04:00,81.6,29.4,29.84,SW,217,4.0,10.0,15,0.00,,,0.00,Wunderground v.1.15,2013-06-15 21:04:00,
2013-06-15 15:06:00,81.2,27.4,29.84,SW,234,4.0,10.0,14,0.00,,,0.00,Wunderground v.1.15,2013-06-15 21:06:00,
2013-06-15 15:10:00,81.6,29.4,29.84,SW,228,5.0,5.0,15,0.00,,,0.00,Wunderground v.1.15,2013-06-15 21:10:00,
2013-06-15 15:12:00,82.0,29.8,29.84,SW,228,5.0,5.0,15,0.00,,,0.00,Wunderground v.1.15,2013-06-15 21:12:00,
2013-06-15 15:14:00,82.6,28.6,29.84,WSW,237,3.0,5.0,14,0.00,,,0.00,Wunderground v.1.15,2013-06-15 21:14:00,
2013-06-15 15:18:00,83.4,29.2,29.85,SSW,213,3.0,11.0,14,0.00,,,0.00,Wunderground v.1.15,2013-06-15 21:18:00,
2013-06-15 15:20:00,83.6,27.5,29.85,WNW,303,3.0,3.0,13,0.00,,,0.00,Wunderground v.1.15,2013-06-15 21:20:00,
2013-06-15 15:22:00,83.8,29.5,29.85,WSW,252,3.0,3.0,14,0.00,,,0.00,Wunderground v.1.15,2013-06-15 21:22:00,
2013-06-15 15:26:00,84.3,29.9,29.85,NW,308,2.0,3.0,14,0.00,,,0.00,Wunderground v.1.15,2013-06-15 21:26:00,
2013-06-15 15:28:00,84.3,28.1,29.85,WNW,302,2.0,3.0,13,0.00,,,0.00,Wunderground v.1.15,2013-06-15 21:28:00,
2013-06-15 15:32:00,84.1,29.7,29.83,NW,304,3.0,6.0,14,0.00,,,0.00,Wunderground v.1.15,2013-06-15 21:32:00,
2013-06-15 15:34:00,84.1,29.7,29.83,NW,309,3.0,6.0,14,0.00,,,0.00,Wunderground v.1.15,2013-06-15 21:34:00,
2013-06-15 15:36:00,84.1,27.9,29.83,WNW,293,4.0,6.0,13,0.00,,,0.00,Wunderground v.1.15,2013-06-15 21:36:00,
2013-06-15 15:38:00,84.1,27.9,29.83,NW,322,4.0,6.0,13,0.00,,,0.00,Wunderground v.1.15,2013-06-15 21:38:00,
2013-06-15 15:40:00,84.1,27.9,29.83,NNW,334,4.0,4.0,13,0.00,,,0.00,Wunderground v.1.15,2013-06-15 21:40:00,
2013-06-15 15:42:00,84.1,27.9,29.83,NW,320,4.0,4.0,13,0.00,,,0.00,Wunderground v.1.15,2013-06-15 21:42:00,
2013-06-15 15:46:00,84.7,30.2,29.82,NW,317,2.0,4.0,14,0.00,,,0.00,Wunderground v.1.15,2013-06-15 21:46:00,
2013-06-15 15:50:00,85.1,26.8,29.82,WNW,298,1.0,5.0,12,0.00,,,0.00,Wunderground v.1.15,2013-06-15 21:50:00,
2013-06-15 15:52:00,84.9,26.6,29.82,WNW,297,2.0,5.0,12,0.00,,,0.00,Wunderground v.1.15,2013-06-15 21:52:00,
2013-06-15 15:56:00,84.9,24.5,29.82,NW,321,2.0,5.0,11,0.00,,,0.00,Wunderground v.1.15,2013-06-15 21:56:00,
2013-06-15 16:01:00,84.9,26.6,29.82,NNW,332,3.0,5.0,12,0.00,,,0.00,Wunderground v.1.15,2013-06-15 22:01:00,
2013-06-15 16:02:00,84.7,26.4,29.82,NNW,331,3.0,5.0,12,0.00,,,0.00,Wunderground v.1.15,2013-06-15 22:02:00,
2013-06-15 16:04:00,84.5,26.3,29.82,NNW,331,3.0,5.0,12,0.00,,,0.00,Wunderground v.1.15,2013-06-15 22:04:00,
2013-06-15 16:06:00,84.7,24.4,29.82,NE,47,3.0,5.0,11,0.00,,,0.00,Wunderground v.1.15,2013-06-15 22:06:00,
2013-06-15 16:08:00,84.7,26.4,29.82,NW,325,3.0,6.0,12,0.00,,,0.00,Wunderground v.1.15,2013-06-15 22:08:00,
2013-06-15 16:10:00,84.7,26.4,29.82,NNW,342,3.0,3.0,12,0.00,,,0.00,Wunderground v.1.15,2013-06-15 22:10:00,
2013-06-15 16:12:00,84.5,24.2,29.82,NW,323,3.0,9.0,11,0.00,,,0.00,Wunderground v.1.15,2013-06-15 22:12:00,
2013-06-15 16:14:00,84.3,24.0,29.82,NW,319,3.0,9.0,11,0.00,,,0.00,Wunderground v.1.15,2013-06-15 22:14:00,
2013-06-15 16:18:00,84.1,26.0,29.84,North,5,4.0,9.0,12,0.00,,,0.00,Wunderground v.1.15,2013-06-15 22:18:00,
2013-06-15 16:20:00,84.3,28.1,29.84,NE,40,3.0,10.0,13,0.00,,,0.00,Wunderground v.1.15,2013-06-15 22:20:00,
2013-06-15 16:22:00,84.7,30.2,29.84,North,11,3.0,10.0,14,0.00,,,0.00,Wunderground v.1.15,2013-06-15 22:22:00,
2013-06-15 16:24:00,84.9,24.5,29.84,NE,36,3.0,10.0,11,0.00,,,0.00,Wunderground v.1.15,2013-06-15 22:24:00,
2013-06-15 16:26:00,84.9,26.6,29.84,NNE,20,2.0,10.0,12,0.00,,,0.00,Wunderground v.1.15,2013-06-15 22:26:00,
2013-06-15 16:32:00,84.3,26.1,29.84,NNW,341,3.0,4.0,12,0.00,,,0.00,Wunderground v.1.15,2013-06-15 22:32:00,
2013-06-15 16:36:00,83.6,25.6,29.84,NNW,342,3.0,4.0,12,0.00,,,0.00,Wunderground v.1.15,2013-06-15 22:36:00,
2013-06-15 16:38:00,83.2,25.3,29.84,NNW,338,3.0,4.0,12,0.00,,,0.00,Wunderground v.1.15,2013-06-15 22:38:00,
2013-06-15 16:40:00,83.0,25.1,29.84,North,351,2.0,2.0,12,0.00,,,0.00,Wunderground v.1.15,2013-06-15 22:40:00,
2013-06-15 16:42:00,82.8,25.0,29.84,NNW,344,2.0,2.0,12,0.00,,,0.00,Wunderground v.1.15,2013-06-15 22:42:00,
2013-06-15 16:48:00,82.0,26.3,29.85,North,5,2.0,6.0,13,0.00,,,0.00,Wunderground v.1.15,2013-06-15 22:48:00,
2013-06-15 16:50:00,81.8,24.2,29.85,NNE,14,2.0,2.0,12,0.00,,,0.00,Wunderground v.1.15,2013-06-15 22:50:00,
2013-06-15 16:54:00,81.4,25.8,29.85,NW,311,2.0,2.0,13,0.00,,,0.00,Wunderground v.1.15,2013-06-15 22:54:00,
2013-06-15 16:56:00,81.4,25.8,29.85,NNE,17,2.0,3.0,13,0.00,,,0.00,Wunderground v.1.15,2013-06-15 22:56:00,
2013-06-15 17:02:00,80.9,28.9,29.86,North,32767,1.0,1.0,15,0.00,,,0.00,Wunderground v.1.15,2013-06-15 23:02:00,
2013-06-15 17:04:00,80.7,31.8,29.86,North,32767,1.0,1.0,17,0.00,,,0.00,Wunderground v.1.15,2013-06-15 23:04:00,
2013-06-15 17:08:00,80.1,29.8,29.86,North,355,0.0,1.0,16,0.00,,,0.00,Wunderground v.1.15,2013-06-15 23:08:00,
2013-06-15 17:10:00,79.9,29.7,29.86,North,355,0.0,1.0,16,0.00,,,0.00,Wunderground v.1.15,2013-06-15 23:10:00,
2013-06-15 17:14:00,79.9,31.2,29.86,North,355,0.0,0.0,17,0.00,,,0.00,Wunderground v.1.15,2013-06-15 23:14:00,
2013-06-15 17:16:00,79.9,31.2,29.87,North,355,0.0,0.0,17,0.00,,,0.00,Wunderground v.1.15,2013-06-15 23:16:00,
2013-06-15 17:20:00,80.1,32.7,29.87,North,355,0.0,0.0,18,0.00,,,0.00,Wunderground v.1.15,2013-06-15 23:20:00,
2013-06-15 17:22:00,80.3,31.5,29.87,North,355,0.0,0.0,17,0.00,,,0.00,Wunderground v.1.15,2013-06-15 23:22:00,
2013-06-15 17:26:00,80.7,31.8,29.87,North,355,0.0,3.0,17,0.00,,,0.00,Wunderground v.1.15,2013-06-15 23:26:00,
2013-06-15 17:28:00,80.7,28.7,29.87,NE,34,1.0,3.0,15,0.00,,,0.00,Wunderground v.1.15,2013-06-15 23:28:00,
2013-06-15 17:31:00,80.9,30.5,29.85,NNE,32,1.0,3.0,16,0.00,,,0.00,Wunderground v.1.15,2013-06-15 23:31:00,
2013-06-15 17:34:00,80.9,30.5,29.85,SW,236,1.0,1.0,16,0.00,,,0.00,Wunderground v.1.15,2013-06-15 23:34:00,
2013-06-15 17:36:00,80.9,28.9,29.85,WSW,251,1.0,1.0,15,0.00,,,0.00,Wunderground v.1.15,2013-06-15 23:36:00,
2013-06-15 17:38:00,80.9,28.9,29.85,WSW,242,1.0,1.0,15,0.00,,,0.00,Wunderground v.1.15,2013-06-15 23:38:00,
2013-06-15 17:40:00,80.7,27.0,29.85,SW,227,1.0,1.0,14,0.00,,,0.00,Wunderground v.1.15,2013-06-15 23:40:00,
2013-06-15 17:44:00,80.7,28.7,29.85,SW,227,1.0,1.0,15,0.00,,,0.00,Wunderground v.1.15,2013-06-15 23:44:00,
2013-06-15 17:46:00,80.7,27.0,29.85,SW,232,1.0,1.0,14,0.00,,,0.00,Wunderground v.1.15,2013-06-15 23:46:00,
2013-06-15 17:48:00,80.7,28.7,29.85,SW,232,1.0,1.0,15,0.00,,,0.00,Wunderground v.1.15,2013-06-15 23:48:00,
2013-06-15 17:50:00,80.7,27.0,29.85,West,260,0.0,3.0,14,0.00,,,0.00,Wunderground v.1.15,2013-06-15 23:50:00,
2013-06-15 17:56:00,80.5,26.9,29.85,WSW,238,1.0,3.0,14,0.00,,,0.00,Wunderground v.1.15,2013-06-15 23:56:00,
2013-06-15 17:58:00,80.5,26.9,29.85,WSW,252,1.0,3.0,14,0.00,,,0.00,Wunderground v.1.15,2013-06-15 23:58:00,
2013-06-15 18:02:00,80.5,28.6,29.85,SW,223,1.0,1.0,15,0.00,,,0.00,Wunderground v.1.15,2013-06-16 00:02:00,
2013-06-15 18:06:00,80.7,28.7,29.85,SW,221,1.0,1.0,15,0.00,,,0.00,Wunderground v.1.15,2013-06-16 00:06:00,
2013-06-15 18:08:00,80.7,27.0,29.85,SW,222,1.0,1.0,14,0.00,,,0.00,Wunderground v.1.15,2013-06-16 00:08:00,
2013-06-15 18:14:00,81.1,29.1,29.85,NW,321,1.0,1.0,15,0.00,,,0.00,Wunderground v.1.15,2013-06-16 00:14:00,
2013-06-15 18:16:00,81.1,27.4,29.83,WNW,302,1.0,1.0,14,0.00,,,0.00,Wunderground v.1.15,2013-06-16 00:16:00,
2013-06-15 18:20:00,81.2,29.1,29.83,West,277,1.0,1.0,15,0.00,,,0.00,Wunderground v.1.15,2013-06-16 00:20:00,
2013-06-15 18:22:00,81.1,29.1,29.83,SW,236,1.0,1.0,15,0.00,,,0.00,Wunderground v.1.15,2013-06-16 00:22:00,
2013-06-15 18:24:00,81.1,29.1,29.83,WSW,240,1.0,1.0,15,0.00,,,0.00,Wunderground v.1.15,2013-06-16 00:24:00,
2013-06-15 18:26:00,80.9,28.9,29.83,WSW,245,1.0,1.0,15,0.00,,,0.00,Wunderground v.1.15,2013-06-16 00:26:00,
2013-06-15 18:28:00,80.9,28.9,29.83,WSW,243,1.0,1.0,15,0.00,,,0.00,Wunderground v.1.15,2013-06-16 00:28:00,
2013-06-15 18:31:00,80.9,28.9,29.84,WSW,243,1.0,1.0,15,0.00,,,0.00,Wunderground v.1.15,2013-06-16 00:31:00,
2013-06-15 18:32:00,80.9,28.9,29.84,WSW,243,1.0,1.0,15,0.00,,,0.00,Wunderground v.1.15,2013-06-16 00:32:00,
2013-06-15 18:36:00,81.2,29.1,29.84,WSW,242,0.0,1.0,15,0.00,,,0.00,Wunderground v.1.15,2013-06-16 00:36:00,
2013-06-15 18:38:00,81.2,30.7,29.84,WSW,242,0.0,1.0,16,0.00,,,0.00,Wunderground v.1.15,2013-06-16 00:38:00,
2013-06-15 18:44:00,81.4,27.6,29.84,WSW,243,0.0,0.0,14,0.00,,,0.00,Wunderground v.1.15,2013-06-16 00:44:00,
2013-06-15 18:46:00,81.6,29.4,29.84,WSW,243,0.0,0.0,15,0.00,,,0.00,Wunderground v.1.15,2013-06-16 00:46:00,
2013-06-15 18:50:00,81.4,29.3,29.84,WSW,242,0.0,0.0,15,0.00,,,0.00,Wunderground v.1.15,2013-06-16 00:50:00,
2013-06-15 18:52:00,81.4,32.4,29.84,WSW,243,0.0,0.0,17,0.00,,,0.00,Wunderground v.1.15,2013-06-16 00:52:00,
2013-06-15 18:56:00,81.1,29.1,29.84,SW,223,1.0,4.0,15,0.00,,,0.00,Wunderground v.1.15,2013-06-16 00:56:00,
2013-06-15 18:58:00,80.9,30.5,29.84,SW,221,1.0,4.0,16,0.00,,,0.00,Wunderground v.1.15,2013-06-16 00:58:00,
2013-06-15 19:01:00,80.5,28.6,29.85,SSW,201,3.0,3.0,15,0.00,,,0.00,Wunderground v.1.15,2013-06-16 01:01:00,
2013-06-15 19:06:00,79.8,29.6,29.85,SW,215,4.0,7.0,16,0.00,,,0.00,Wunderground v.1.15,2013-06-16 01:06:00,
2013-06-15 19:08:00,79.6,29.4,29.85,SW,236,4.0,7.0,16,0.00,,,0.00,Wunderground v.1.15,2013-06-16 01:08:00,
2013-06-15 19:10:00,79.4,30.8,29.85,SSE,163,3.0,3.0,17,0.00,,,0.00,Wunderground v.1.15,2013-06-16 01:10:00,
2013-06-15 19:12:00,79.2,29.1,29.85,WSW,244,3.0,3.0,16,0.00,,,0.00,Wunderground v.1.15,2013-06-16 01:12:00,
2013-06-15 19:14:00,79.0,28.9,29.85,WSW,238,3.0,7.0,16,0.00,,,0.00,Wunderground v.1.15,2013-06-16 01:14:00,
2013-06-15 19:16:00,78.8,28.8,29.82,SW,236,4.0,7.0,16,0.00,,,0.00,Wunderground v.1.15,2013-06-16 01:16:00,
2013-06-15 19:20:00,78.6,30.1,29.82,WSW,240,5.0,5.0,17,0.00,,,0.00,Wunderground v.1.15,2013-06-16 01:20:00,
2013-06-15 19:24:00,78.5,30.0,29.82,WSW,249,5.0,5.0,17,0.00,,,0.00,Wunderground v.1.15,2013-06-16 01:24:00,
2013-06-15 19:28:00,78.5,28.5,29.82,SSW,206,3.0,5.0,16,0.00,,,0.00,Wunderground v.1.15,2013-06-16 01:28:00,
2013-06-15 19:34:00,78.3,28.4,29.83,SW,215,3.0,5.0,16,0.00,,,0.00,Wunderground v.1.15,2013-06-16 01:34:00,
2013-06-15 19:40:00,78.5,28.5,29.83,SW,227,3.0,3.0,16,0.00,,,0.00,Wunderground v.1.15,2013-06-16 01:40:00,
2013-06-15 19:42:00,78.5,28.5,29.83,South,170,3.0,3.0,16,0.00,,,0.00,Wunderground v.1.15,2013-06-16 01:42:00,
2013-06-15 19:46:00,78.6,28.6,29.83,SW,234,3.0,5.0,16,0.00,,,0.00,Wunderground v.1.15,2013-06-16 01:46:00,
2013-06-15 19:48:00,78.6,30.1,29.83,WSW,239,3.0,5.0,17,0.00,,,0.00,Wunderground v.1.15,2013-06-16 01:48:00,
2013-06-15 19:52:00,78.5,30.0,29.83,WSW,258,2.0,2.0,17,0.00,,,0.00,Wunderground v.1.15,2013-06-16 01:52:00,
2013-06-15 19:56:00,78.1,29.7,29.83,SSE,153,1.0,2.0,17,0.00,,,0.00,Wunderground v.1.15,2013-06-16 01:56:00,
2013-06-15 20:01:00,77.9,29.5,29.84,WSW,242,2.0,2.0,17,0.00,,,0.00,Wunderground v.1.15,2013-06-16 02:01:00,
2013-06-15 20:02:00,77.7,29.4,29.84,SSW,193,2.0,3.0,17,0.00,,,0.00,Wunderground v.1.15,2013-06-16 02:02:00,
2013-06-15 20:06:00,77.6,29.3,29.84,WSW,244,3.0,4.0,17,0.00,,,0.00,Wunderground v.1.15,2013-06-16 02:06:00,
2013-06-15 20:08:00,77.4,29.1,29.84,WSW,243,2.0,4.0,17,0.00,,,0.00,Wunderground v.1.15,2013-06-16 02:08:00,
2013-06-15 20:12:00,77.2,29.0,29.84,WSW,242,2.0,2.0,17,0.00,,,0.00,Wunderground v.1.15,2013-06-16 02:12:00,
2013-06-15 20:16:00,77.0,30.2,29.80,WSW,246,1.0,5.0,18,0.00,,,0.00,Wunderground v.1.15,2013-06-16 02:16:00,
2013-06-15 20:18:00,76.8,28.7,29.80,WSW,242,2.0,6.0,17,0.00,,,0.00,Wunderground v.1.15,2013-06-16 02:18:00,
2013-06-15 20:22:00,76.7,28.6,29.80,WSW,240,2.0,2.0,17,0.00,,,0.00,Wunderground v.1.15,2013-06-16 02:22:00,
2013-06-15 20:24:00,76.5,28.4,29.80,SW,236,2.0,4.0,17,0.00,,,0.00,Wunderground v.1.15,2013-06-16 02:24:00,
2013-06-15 20:26:00,76.5,28.4,29.80,SW,236,1.0,4.0,17,0.00,,,0.00,Wunderground v.1.15,2013-06-16 02:26:00,
2013-06-15 20:28:00,76.3,29.7,29.80,SSW,196,1.0,4.0,18,0.00,,,0.00,Wunderground v.1.15,2013-06-16 02:28:00,
2013-06-15 20:31:00,76.1,29.5,29.81,SSW,205,1.0,1.0,18,0.00,,,0.00,Wunderground v.1.15,2013-06-16 02:31:00,
2013-06-15 20:32:00,76.0,29.4,29.81,SSW,204,1.0,1.0,18,0.00,,,0.00,Wunderground v.1.15,2013-06-16 02:32:00,
2013-06-15 20:36:00,75.8,30.6,29.81,SSW,204,0.0,1.0,19,0.00,,,0.00,Wunderground v.1.15,2013-06-16 02:36:00,
2013-06-15 20:38:00,75.8,30.6,29.81,SSW,204,0.0,1.0,19,0.00,,,0.00,Wunderground v.1.15,2013-06-16 02:38:00,
2013-06-15 20:40:00,75.6,30.4,29.81,SSW,205,0.0,0.0,19,0.00,,,0.00,Wunderground v.1.15,2013-06-16 02:40:00,
2013-06-15 20:42:00,75.4,30.2,29.81,SSW,206,0.0,0.0,19,0.00,,,0.00,Wunderground v.1.15,2013-06-16 02:42:00,
2013-06-15 20:44:00,75.3,30.2,29.81,SSW,206,0.0,0.0,19,0.00,,,0.00,Wunderground v.1.15,2013-06-16 02:44:00,
2013-06-15 20:46:00,75.1,30.0,29.83,SSW,206,0.0,0.0,19,0.00,,,0.00,Wunderground v.1.15,2013-06-16 02:46:00,
2013-06-15 20:50:00,74.9,29.8,29.83,SSW,206,0.0,0.0,19,0.00,,,0.00,Wunderground v.1.15,2013-06-16 02:50:00,
2013-06-15 20:52:00,74.7,29.7,29.83,SSW,206,0.0,0.0,19,0.00,,,0.00,Wunderground v.1.15,2013-06-16 02:52:00,
2013-06-15 20:54:00,74.6,29.6,29.83,SSW,206,0.0,0.0,19,0.00,,,0.00,Wunderground v.1.15,2013-06-16 02:54:00,
2013-06-15 20:56:00,74.4,30.7,29.83,SSW,206,0.0,0.0,20,0.00,,,0.00,Wunderground v.1.15,2013-06-16 02:56:00,
2013-06-15 20:58:00,74.2,31.7,29.83,SSW,207,0.0,0.0,21,0.00,,,0.00,Wunderground v.1.15,2013-06-16 02:58:00,
2013-06-15 21:01:00,74.0,30.4,29.84,SSW,206,0.0,0.0,20,0.00,,,0.00,Wunderground v.1.15,2013-06-16 03:01:00,
2013-06-15 21:04:00,73.7,30.1,29.84,SSW,206,0.0,0.0,20,0.00,,,0.00,Wunderground v.1.15,2013-06-16 03:04:00,
2013-06-15 21:10:00,73.0,31.9,29.84,SSW,207,0.0,0.0,22,0.00,,,0.00,Wunderground v.1.15,2013-06-16 03:10:00,
2013-06-15 21:12:00,72.8,30.6,29.84,SSW,206,0.0,0.0,21,0.00,,,0.00,Wunderground v.1.15,2013-06-16 03:12:00,
2013-06-15 21:14:00,72.7,31.6,29.84,SSW,206,0.0,0.0,22,0.00,,,0.00,Wunderground v.1.15,2013-06-16 03:14:00,
2013-06-15 21:16:00,72.5,31.5,29.83,SSW,206,0.0,0.0,22,0.00,,,0.00,Wunderground v.1.15,2013-06-16 03:16:00,
2013-06-15 21:18:00,72.3,31.3,29.83,SSW,206,0.0,0.0,22,0.00,,,0.00,Wunderground v.1.15,2013-06-16 03:18:00,
2013-06-15 21:24:00,71.8,32.0,29.83,SSW,206,0.0,0.0,23,0.00,,,0.00,Wunderground v.1.15,2013-06-16 03:24:00,
2013-06-15 21:26:00,71.6,31.8,29.83,SSW,206,0.0,0.0,23,0.00,,,0.00,Wunderground v.1.15,2013-06-16 03:26:00,
2013-06-15 21:28:00,71.6,32.9,29.83,SSW,206,0.0,0.0,24,0.00,,,0.00,Wunderground v.1.15,2013-06-16 03:28:00,
2013-06-15 21:31:00,71.5,32.8,29.84,SSW,207,0.0,0.0,24,0.00,,,0.00,Wunderground v.1.15,2013-06-16 03:31:00,
2013-06-15 21:34:00,71.3,32.6,29.84,SSW,206,0.0,0.0,24,0.00,,,0.00,Wunderground v.1.15,2013-06-16 03:34:00,
2013-06-15 21:36:00,71.1,33.5,29.84,SSW,206,0.0,0.0,25,0.00,,,0.00,Wunderground v.1.15,2013-06-16 03:36:00,
2013-06-15 21:40:00,70.9,32.3,29.84,SSW,206,0.0,2.0,24,0.00,,,0.00,Wunderground v.1.15,2013-06-16 03:40:00,
2013-06-15 21:42:00,70.8,33.2,29.84,SSW,206,0.0,0.0,25,0.00,,,0.00,Wunderground v.1.15,2013-06-16 03:42:00,
2013-06-15 21:46:00,70.4,31.9,29.83,ENE,57,1.0,1.0,24,0.00,,,0.00,Wunderground v.1.15,2013-06-16 03:46:00,
2013-06-15 21:48:00,70.3,31.8,29.83,NE,52,1.0,1.0,24,0.00,,,0.00,Wunderground v.1.15,2013-06-16 03:48:00,
2013-06-15 21:52:00,69.9,32.5,29.83,NE,56,1.0,3.0,25,0.00,,,0.00,Wunderground v.1.15,2013-06-16 03:52:00,
2013-06-15 21:54:00,69.6,32.2,29.83,NE,56,1.0,3.0,25,0.00,,,0.00,Wunderground v.1.15,2013-06-16 03:54:00,
2013-06-15 21:56:00,69.4,33.0,29.83,ENE,57,1.0,3.0,26,0.00,,,0.00,Wunderground v.1.15,2013-06-16 03:56:00,
2013-06-15 22:02:00,68.9,32.6,29.86,ENE,59,0.0,0.0,26,0.00,,,0.00,Wunderground v.1.15,2013-06-16 04:02:00,
2013-06-15 22:04:00,68.8,32.5,29.86,ENE,59,0.0,0.0,26,0.00,,,0.00,Wunderground v.1.15,2013-06-16 04:04:00,
2013-06-15 22:06:00,68.6,32.3,29.86,ENE,59,0.0,3.0,26,0.00,,,0.00,Wunderground v.1.15,2013-06-16 04:06:00,
2013-06-15 22:10:00,68.3,33.0,29.86,ENE,59,0.0,3.0,27,0.00,,,0.00,Wunderground v.1.15,2013-06-16 04:10:00,
2013-06-15 22:14:00,67.9,32.7,29.86,ENE,59,0.0,0.0,27,0.00,,,0.00,Wunderground v.1.15,2013-06-16 04:14:00,
2013-06-15 22:18:00,67.6,32.4,29.85,ENE,59,0.0,0.0,27,0.00,,,0.00,Wunderground v.1.15,2013-06-16 04:18:00,
2013-06-15 22:22:00,67.1,33.8,29.85,ENE,59,0.0,0.0,29,0.00,,,0.00,Wunderground v.1.15,2013-06-16 04:22:00,
2013-06-15 22:24:00,66.9,33.6,29.85,ENE,59,0.0,0.0,29,0.00,,,0.00,Wunderground v.1.15,2013-06-16 04:24:00,
2013-06-15 22:31:00,66.4,34.0,29.87,ENE,59,0.0,0.0,30,0.00,,,0.00,Wunderground v.1.15,2013-06-16 04:31:00,
2013-06-15 22:32:00,66.3,33.9,29.87,ENE,59,0.0,0.0,30,0.00,,,0.00,Wunderground v.1.15,2013-06-16 04:32:00,
2013-06-15 22:36:00,66.0,34.5,29.87,ENE,59,0.0,0.0,31,0.00,,,0.00,Wunderground v.1.15,2013-06-16 04:36:00,
2013-06-15 22:38:00,65.8,34.3,29.87,ENE,61,0.0,0.0,31,0.00,,,0.00,Wunderground v.1.15,2013-06-16 04:38:00,
2013-06-15 22:40:00,65.6,33.3,29.87,SE,128,0.0,0.0,30,0.00,,,0.00,Wunderground v.1.15,2013-06-16 04:40:00,
2013-06-15 22:42:00,65.5,33.2,29.87,SE,128,0.0,0.0,30,0.00,,,0.00,Wunderground v.1.15,2013-06-16 04:42:00,
2013-06-15 22:44:00,65.2,33.8,29.87,SE,128,0.0,0.0,31,0.00,,,0.00,Wunderground v.1.15,2013-06-16 04:44:00,
2013-06-15 22:46:00,65.0,32.8,29.88,SE,128,0.0,0.0,30,0.00,,,0.00,Wunderground v.1.15,2013-06-16 04:46:00,
2013-06-15 22:50:00,64.8,32.6,29.88,SE,128,0.0,0.0,30,0.00,,,0.00,Wunderground v.1.15,2013-06-16 04:50:00,
2013-06-15 22:52:00,64.7,33.3,29.88,SE,128,0.0,0.0,31,0.00,,,0.00,Wunderground v.1.15,2013-06-16 04:52:00,
2013-06-15 22:56:00,64.5,33.2,29.88,SE,128,0.0,0.0,31,0.00,,,0.00,Wunderground v.1.15,2013-06-16 04:56:00,
2013-06-15 22:58:00,64.5,33.2,29.88,SE,128,0.0,0.0,31,0.00,,,0.00,Wunderground v.1.15,2013-06-16 04:58:00,
2013-06-15 23:01:00,64.5,33.2,29.89,SE,128,0.0,0.0,31,0.00,,,0.00,Wunderground v.1.15,2013-06-16 05:01:00,
2013-06-15 23:02:00,64.5,33.2,29.89,SE,128,0.0,0.0,31,0.00,,,0.00,Wunderground v.1.15,2013-06-16 05:02:00,
2013-06-15 23:06:00,64.3,33.8,29.89,SE,128,0.0,0.0,32,0.00,,,0.00,Wunderground v.1.15,2013-06-16 05:06:00,
2013-06-15 23:08:00,64.2,33.7,29.89,SE,128,0.0,0.0,32,0.00,,,0.00,Wunderground v.1.15,2013-06-16 05:08:00,
2013-06-15 23:12:00,64.3,33.0,29.89,SE,128,0.0,0.0,31,0.00,,,0.00,Wunderground v.1.15,2013-06-16 05:12:00,
2013-06-15 23:18:00,64.3,33.0,29.88,SE,128,0.0,0.0,31,0.00,,,0.00,Wunderground v.1.15,2013-06-16 05:18:00,
2013-06-15 23:20:00,64.3,33.0,29.88,SE,128,0.0,0.0,31,0.00,,,0.00,Wunderground v.1.15,2013-06-16 05:20:00,
2013-06-15 23:22:00,64.3,33.8,29.88,SE,128,0.0,0.0,32,0.00,,,0.00,Wunderground v.1.15,2013-06-16 05:22:00,
2013-06-15 23:24:00,64.2,33.7,29.88,SE,128,0.0,0.0,32,0.00,,,0.00,Wunderground v.1.15,2013-06-16 05:24:00,
2013-06-15 23:26:00,64.0,33.5,29.88,SE,128,0.0,0.0,32,0.00,,,0.00,Wunderground v.1.15,2013-06-16 05:26:00,
2013-06-15 23:28:00,63.9,33.4,29.88,SE,128,0.0,0.0,32,0.00,,,0.00,Wunderground v.1.15,2013-06-16 05:28:00,
2013-06-15 23:31:00,63.9,33.4,29.88,SE,128,0.0,0.0,32,0.00,,,0.00,Wunderground v.1.15,2013-06-16 05:31:00,
2013-06-15 23:32:00,63.7,33.3,29.88,SE,128,0.0,0.0,32,0.00,,,0.00,Wunderground v.1.15,2013-06-16 05:32:00,
2013-06-15 23:34:00,63.7,33.3,29.88,SE,128,0.0,0.0,32,0.00,,,0.00,Wunderground v.1.15,2013-06-16 05:34:00,
2013-06-15 23:40:00,63.5,33.1,29.88,SE,128,0.0,0.0,32,0.00,,,0.00,Wunderground v.1.15,2013-06-16 05:40:00,
2013-06-15 23:42:00,63.5,33.1,29.88,SE,128,0.0,0.0,32,0.00,,,0.00,Wunderground v.1.15,2013-06-16 05:42:00,
2013-06-15 23:44:00,63.5,33.9,29.88,SE,128,0.0,0.0,33,0.00,,,0.00,Wunderground v.1.15,2013-06-16 05:44:00,
2013-06-15 23:46:00,63.5,33.1,29.88,SE,128,0.0,0.0,32,0.00,,,0.00,Wunderground v.1.15,2013-06-16 05:46:00,
2013-06-15 23:50:00,63.5,33.1,29.88,SE,128,0.0,0.0,32,0.00,,,0.00,Wunderground v.1.15,2013-06-16 05:50:00,
2013-06-15 23:54:00,63.5,33.1,29.88,SE,128,0.0,1.0,32,0.00,,,0.00,Wunderground v.1.15,2013-06-16 05:54:00,
2013-06-15 23:56:00,63.5,33.1,29.88,SE,128,0.0,1.0,32,0.00,,,0.00,Wunderground v.1.15,2013-06-16 05:56:00,